Regional Weather Roundup
Issued by NWS

Home | Current Version | Previous Version | Graphics & Text | Print | Product List | Glossary On
Versions: 1 2 3 4 5 6 7 8 9 10 11 12 13 14 15 16 17 18 19 20 21 22 23 24 25 26 27 28 29 30 31 32 33 34 35 36 37 38 39 40 41 42 43 44 45 46 47 48 49 50
873
ASUS44 KJAN 302110
RWRMS

MISSISSIPPI HOURLY WEATHER ROUNDUP
NATIONAL WEATHER SERVICE JACKSON MS
400 PM CDT MON MAR 30 2015

NOTE: "FAIR: INDICATES FEW OR NO CLOUDS BELOW 12,000 FEET WITH NO
SIGNIFICANT WEATHER AND/OR OBSTRUCTIONS TO VISIBILITY.

MSZ001>002-007>008-010>013-018>021-025>028-034>036-302200-
NORTHWEST MISSISSIPPI

CITY           SKY/WX    TMP DP  RH WIND       PRES   REMARKS
CLARKSDALE     FAIR      72  50  46 CALM      30.15F
CLEVELAND      FAIR      73  49  42 SW5       30.13F
GREENWOOD      SUNNY     77  47  34 CALM      30.11F
GREENVILLE     SUNNY     75  49  39 CALM      30.13F
OLIVE BRANCH   SUNNY     70  43  37 CALM      30.14F
OXFORD         FAIR      72  39  30 NW6       30.15F
TUNICA         CLEAR     70  45  40 CALM      30.15F
$$

MSZ003>006-009-014>017-022>024-029>033-037>039-302200-
NORTHEAST MISSISSIPPI

CITY           SKY/WX    TMP DP  RH WIND       PRES   REMARKS
COLUMBUS AFB   SUNNY     76  42  30 NW9       30.12F
CORINTH        FAIR      70  39  32 CALM      30.14F
GOLDN TRIANGLE MOSUNNY   75  50  41 NW3       30.13F
STARKVILLE     FAIR      75  48  38 W5        30.12F
TUPELO         SUNNY     72  44  36 CALM      30.14F
$$

MSZ040-058-302200-
CENTRAL MISSISSIPPI

CITY           SKY/WX    TMP DP  RH WIND       PRES   REMARKS
JACKSON INTL   PTSUNNY   78  59  51 W3        30.12F
JACKSON HAWKNS PTSUNNY   77  59  53 W9        30.13F
MERIDIAN KEY   PTSUNNY   74  59  59 W5        30.13F
MERIDIAN NAS   PTSUNNY   76  58  53 NW7       30.13F
RAYMOND        FAIR      77  72  83 W7G14     30.12F
VICKSBURG      PTSUNNY   76  62  62 E6        30.12F
$$

MSZ059>079-302200-
SOUTH MISSISSIPPI

CITY           SKY/WX    TMP DP  RH WIND       PRES   REMARKS
BROOKHAVEN     FAIR      79  57  47 NW6       30.14F
HATTIESBURG    MOSUNNY   82  54  37 NW7       30.13F
MCCOMB         MOSUNNY   81  55  40 NW9       30.13F
NATCHEZ          N/A    N/A N/A N/A MISG        N/A
PINE BELT      MOSUNNY   81  54  39 SW5       30.14F
$$

MSZ080>082-302200-
COASTAL MISSISSIPPI

CITY           SKY/WX    TMP DP  RH WIND       PRES   REMARKS
BAY ST LOUIS   MOSUNNY   82  54  36 MISG      30.14F
BILOXI         SUNNY     76  66  71 SW16      30.13F
PASCAGOULA     SUNNY     78  65  63 SW8G18    30.14F
GULFPORT       SUNNY     77  63  61 S12G18    30.13F
$$



USA.gov is the U.S. government's official web portal to all federal, state and local government web resources and services.